Location: La Balmette
(45.7573°N, 6.2832°E)
Time: 22:41:20
(UTC+00:00)

Daily predictions for brighter satellites

Satellite Brightness Start Highest point End
(mag) Time Altitude Azimuth Time Altitude Azimuth Time Altitude Azimuth
Cosmos 1833 Rocket 4.4 19:53:50 10° WSW 19:59:03 39° NW 20:04:19 10° NNE
USA 245 4.4 19:57:28 10° SE 20:00:21 28° ENE 20:03:51 10° N
PSLV R/B 4.5 19:57:46 10° S 20:01:12 47° W 20:04:38 10° NNW
Tiangong -1.3 19:58:57 10° WSW 20:01:54 35° S 20:04:49 10° ESE
Cosmos 1140 Rocket 4.3 19:58:36 10° SW 20:03:43 56° WNW 20:08:51 10° NNE
Terra 2.7 19:59:52 10° SE 20:04:06 35° ENE 20:08:22 10° N
Cosmos 1707 3.1 20:03:40 10° SSE 20:07:01 38° E 20:10:24 10° NNE
Cosmos 2219 Rocket 4.5 20:04:57 10° NNE 20:07:10 12° NE 20:09:22 10° ENE
Cosmos 1515 Rocket 3.6 20:03:36 10° S 20:07:51 63° E 20:12:09 10° NNE
SL-4 R/B 2.3 20:04:36 10° WSW 20:08:19 65° NNW 20:12:19 10° ENE
Cosmos 1633 Rocket 3.8 20:06:12 10° NNW 20:10:30 54° W 20:14:45 10° S
Cosmos 1190 Rocket 4.1 20:07:13 10° S 20:12:28 66° ESE 20:17:44 10° NNE
Orbus 7S? 4.5 20:07:17 10° WSW 20:13:50 58° NW 20:17:07 10° NE
Okean O Rocket 3.0 20:11:26 10° SSW 20:15:30 37° W 20:19:36 10° NNW
SeaSat 1 2.5 20:12:35 10° SE 20:17:28 72° ENE 20:22:23 10° NNW
Cosmos 1766 3.8 20:14:20 10° NNW 20:18:03 57° W 20:21:43 10° S
EXPRESS MD2 2.3 20:16:35 10° SW 20:19:47 56° SSE 20:22:03 10° ENE
Cosmos 1470 Rocket 3.9 20:18:11 10° NNW 20:22:32 64° W 20:26:47 10° S
CZ-4 R/B 4.3 20:21:30 10° WSW 20:22:49 11° W 20:24:09 10° WNW
USA 234 3.2 20:16:38 10° NE 20:23:11 75° SE 20:29:43 10° SW
Cosmos 1869 Rocket 4.2 20:21:04 10° N 20:25:17 41° ENE 20:29:11 12° SE
IRS-1A Rocket 4.2 20:23:58 10° SSE 20:29:28 87° ENE 20:35:01 10° NNW
Cosmos 2360 Rocket 3.7 20:26:25 10° N 20:31:10 26° NE 20:35:53 10° ESE
Meteor 2-12 Rocket 4.5 20:25:35 10° S 20:31:44 88° ESE 20:37:57 10° N
MOS 1 Rocket 4.0 20:26:39 11° SE 20:31:44 53° ENE 20:36:55 10° N
Cosmos 2333 Rocket 3.7 20:31:06 10° N 20:35:56 27° NE 20:40:45 10° ESE
Cosmos 841 Rocket 4.2 20:31:21 10° N 20:36:23 43° ENE 20:40:43 14° SE
Atlas Centaur 2 4.0 20:31:20 10° SW 20:37:53 26° S 20:43:36 12° SE
ERS-1 Rocket 3.0 20:33:14 10° SSE 20:38:16 85° ENE 20:43:19 10° NNW
Cosmos 1441 Rocket 3.0 20:35:16 10° N 20:38:51 71° ENE 20:41:54 14° SSE
SL-16 R/B 2.6 20:33:36 10° NNW 20:39:11 53° ENE 20:43:56 14° SE
Resurs 01 Rocket 4.2 20:37:31 10° SW 20:40:25 17° W 20:43:20 10° NW
Cosmos 1763 Rocket 3.9 20:35:20 10° NNW 20:40:31 60° WSW 20:45:36 10° S
Cosmos 2369 4.3 20:35:09 10° NW 20:40:43 53° WSW 20:46:15 10° S
In-Cosmos 22 4.3 20:36:42 10° S 20:42:17 62° E 20:47:45 10° NNE
RESURS DK-1 3.6 20:38:50 10° N 20:42:29 30° NE 20:45:34 13° ESE
Spot 2 Rocket 3.5 20:38:13 12° SSE 20:42:51 71° ENE 20:47:55 10° N
Cosmos 2082 Rocket 3.0 20:37:18 10° SW 20:42:55 57° WNW 20:48:32 10° NNE
SL-14 R/B 4.4 20:42:15 16° SE 20:44:23 25° E 20:47:32 10° NE
Cosmos 1933 Rocket 3.8 20:42:25 10° NNW 20:46:50 70° W 20:51:14 10° S
Cosmos 1470 3.2 20:43:48 10° NNW 20:47:26 54° W 20:51:02 10° S
SPOT 5 3.4 20:43:28 10° S 20:47:37 47° W 20:51:50 10° NNW
Cosmos 1417 Rocket 4.5 20:41:31 10° N 20:47:46 78° E 20:53:27 12° SSE
Cosmos 1300 3.7 20:47:49 10° NNE 20:50:58 28° ENE 20:52:53 18° ESE
Cosmos 1908 3.3 20:51:04 10° NNW 20:54:38 66° W 20:57:41 14° S
Cosmos 1346 Rocket 3.8 20:56:02 10° N 20:59:32 31° ENE 21:01:35 19° ESE
ATLAS 2AS CENTAUR R/B 3.4 20:55:18 10° NNW 21:01:54 46° NE 21:07:52 12° ESE
Meteor 1-22 Rocket 4.2 20:58:07 10° N 21:03:46 83° E 21:08:27 16° SSE
Ariane Rocket 3.1 21:03:07 15° S 21:07:22 76° WSW 21:12:30 10° NNW
Meteor 1-4 Rocket 4.1 21:09:50 14° E 21:09:51 14° E 21:11:35 10° NE
Cosmos 1758 3.5 21:06:54 10° N 21:10:45 56° E 21:12:54 24° SSE
Cosmos 1356 Rocket 3.8 21:09:23 21° SSE 21:11:48 46° E 21:15:51 10° NNE
SPOT 3 Rocket 3.7 21:12:14 16° S 21:16:20 70° WSW 21:21:30 10° NNW
Cosmos 1850 Rocket 4.1 21:13:25 14° S 21:17:44 57° ESE 21:22:51 10° NNE
Cosmos 1707 Rocket 3.7 21:16:10 22° SSE 21:18:54 56° E 21:23:15 10° NNE
SL-27 R/B 2.9 21:19:33 28° ESE 21:19:33 28° ESE 21:21:58 10° NE
ARIANE 5 R/B 4.1 21:17:31 16° ESE 21:19:50 25° ENE 21:23:22 10° N
Cosmos 1980 Rocket 4.3 21:19:17 10° WNW 21:23:05 19° W 21:26:52 10° SW
Cosmos 2322 Rocket 2.3 21:18:07 10° NNW 21:23:49 73° ENE 21:27:28 23° SE
S3M 4.3 21:17:28 10° NNW 21:23:49 69° W 21:29:06 15° S
Spot 1 4.1 21:20:21 10° NNE 21:24:51 80° ESE 21:28:33 16° S
Meteor 1-21 4.4 21:21:07 19° S 21:25:13 60° E 21:30:57 10° NNE
Cosmos 1655 Rocket 4.0 21:22:56 13° S 21:28:40 87° E 21:35:07 10° N
SJ 16-02 2.1 21:28:54 27° SE 21:30:15 33° ESE 21:34:08 10° NE
Landsat 5 3.3 21:28:15 10° NNE 21:32:15 89° WNW 21:35:02 20° SSW
Cosmos 2278 4.3 21:27:05 10° NW 21:32:37 50° WSW 21:36:25 19° S
Cosmos 1741 Rocket 3.9 21:31:50 15° SSW 21:36:15 78° ESE 21:41:35 10° NNE
USA 281 3.6 21:32:45 20° SE 21:37:20 56° ENE 21:43:46 10° NNW
Tiangong -0.1 21:36:02 10° WSW 21:37:28 16° SW 21:37:28 16° SW
Cosmos 1400 Rocket 3.7 21:35:14 11° SSW 21:38:48 45° WNW 21:42:31 10° N
MetOp-A 4.1 21:37:25 24° S 21:40:35 79° WSW 21:45:53 10° NNW
Okean 3 3.4 21:39:27 31° SSE 21:41:14 63° E 21:45:22 10° NNE
COSMOS 2428 4.4 21:37:05 10° N 21:41:41 24° NE 21:46:15 10° ESE
Terra 3.4 21:37:48 11° SSW 21:41:43 28° W 21:45:48 10° NW
Cosmos 1733 Rocket 3.0 21:37:37 10° N 21:42:02 84° W 21:44:16 29° S
GP-B 4.1 21:39:24 10° NNE 21:43:21 31° E 21:44:46 25° ESE
Cosmos 968 Rocket 3.4 21:41:01 22° S 21:44:18 67° ESE 21:49:27 10° NNE
Cosmos 1814 Rocket 4.3 21:41:58 10° NNW 21:47:13 61° ENE 21:50:00 28° SE
SL-4 R/B 3.6 21:43:56 10° WNW 21:47:34 35° N 21:51:25 10° ENE
Cosmos 2228 Rocket 3.5 21:44:42 18° SSW 21:47:59 65° W 21:52:33 10° N
Cosmos 1315 Rocket 3.2 21:51:04 36° SE 21:52:05 45° E 21:55:55 10° NNE
Cosmos 2219 Rocket 2.7 21:46:57 10° NNW 21:52:31 52° ENE 21:55:47 24° SE
Cosmos 1908 Rocket 4.2 21:49:13 10° N 21:53:22 41° ENE 21:54:53 30° ESE
ATLAS CENTAUR R/B 0.8 21:52:13 30° SSW 21:53:51 83° SE 21:57:26 10° NE
Meteor 2-10 Rocket 4.4 21:51:40 10° NNW 21:57:02 47° W 22:00:34 19° SSW
Cosmos 1953 2.6 21:56:07 10° N 21:59:52 51° ENE 22:00:51 39° SE
H-2A R/B 3.5 21:59:30 26° ESE 22:01:08 36° ENE 22:05:04 10° N
Cosmos 1455 2.4 21:59:40 10° N 22:03:05 47° ENE 22:03:41 41° ESE
Cosmos 1242 Rocket 3.6 22:04:20 22° ENE 22:04:20 22° ENE 22:06:00 10° NE
USA 234 4.3 21:59:47 10° NE 22:05:59 47° NNW 22:12:10 10° W
Okean 1-7 2.9 22:04:58 39° S 22:06:30 73° E 22:10:50 10° NNE
BREEZE-M DEB (TANK) 2.4 22:06:42 10° WNW 22:08:56 58° SSW 22:09:08 56° S
CZ-2C R/B 3.5 22:05:28 10° NNE 22:09:54 78° ESE 22:11:36 37° S
CZ-4C R/B 3.9 22:11:44 12° E 22:11:44 12° E 22:12:56 10° E
ALOS 2 3.9 22:11:53 23° ESE 22:13:35 30° ENE 22:17:25 10° N
Cosmos 2360 Rocket 2.4 22:09:58 10° NNW 22:15:33 59° WSW 22:18:06 32° S
RESURS DK-1 3.7 22:16:38 10° NW 22:20:07 28° WSW 22:21:10 24° SW
Cosmos 2333 Rocket 2.5 22:14:56 10° NNW 22:20:36 60° WSW 22:23:08 32° S
SL-16 R/B 3.7 22:18:19 10° NW 22:22:54 26° WSW 22:25:47 17° SW
H-2A R/B 4.2 22:21:29 10° ENE 22:23:12 12° E 22:23:29 12° E
Atlas Centaur 2 4.0 22:20:00 10° WSW 22:25:49 23° SSW 22:25:49 23° SSW
EXPRESS MD2 4.0 22:25:21 10° WNW 22:27:20 27° N 22:27:54 24° NNE
OPS 8737 4.0 22:25:51 10° NW 22:28:45 80° NE 22:28:45 80° NE
SL-08 R/B 4.4 22:25:47 30° S 22:29:03 86° W 22:35:11 10° N
BREEZE-M DEB (TANK) 4.2 22:16:34 10° W 22:32:09 66° N 22:36:11 10° ENE
Cosmos 1703 Rocket 3.5 22:32:44 44° S 22:34:09 87° W 22:38:38 10° N
Cosmos 2242 Rocket 4.4 22:36:20 34° ESE 22:37:14 38° E 22:41:28 10° NNE
DNEPR-1 R/B 4.2 22:30:56 10° NW 22:37:37 83° SW 22:39:56 38° SSE
Meteor 1-4 Rocket 3.9 22:41:49 22° W 22:42:29 23° WNW 22:44:59 10° NNW
Cosmos 1932 4.5 22:38:31 16° SW 22:43:41 81° NW 22:50:00 10° NE
Cosmos 839 Rocket 4.2 22:38:25 10° NW 22:45:10 63° WSW 22:47:42 36° S
Cosmos 2322 3.7 22:41:24 10° NNW 22:47:07 78° ENE 22:49:30 36° SE
Cosmos 2237 Rocket 3.7 22:43:10 10° N 22:48:08 30° NE 22:52:21 13° ESE
BlueWalker 3 3.5 22:50:03 23° E 22:50:03 23° E 22:51:49 10° ENE
ATLAS 2AS CENTAUR R/B 3.1 22:46:25 10° NW 22:52:49 46° WSW 22:55:16 32° SSW
Cosmos 2227 Rocket 4.1 22:53:35 14° ESE 22:54:35 15° E 22:57:33 10° ENE
Cosmos 405 Rocket 4.4 22:52:09 10° NNE 22:55:07 22° ENE 22:55:58 20° E
ARIANE 5 R/B 3.6 22:54:59 30° SW 22:56:04 34° W 23:00:03 10° NNW
SL-24 R/B - RUBIN 2 4.4 22:52:28 10° NW 22:59:03 70° WSW 23:01:28 38° SSE
Meteor 2-5 Rocket 4.2 23:03:32 36° SE 23:05:34 51° E 23:11:15 10° NNE
Cosmos 1703 3.4 23:06:48 51° E 23:06:51 51° E 23:10:27 10° NNE
Cosmos 2322 Rocket 4.0 23:03:28 10° WNW 23:07:12 18° W 23:09:15 15° SW
Cosmos 1570 Rocket 4.1 23:02:24 10° NNW 23:07:44 69° WSW 23:09:22 44° S
Cosmos 1745 Rocket 4.1 23:05:11 32° SSW 23:08:15 72° W 23:14:38 10° N
PSLV R/B 3.7 23:04:20 10° NNE 23:08:29 51° E 23:08:58 48° SE
SJ 16-02 3.2 23:05:36 13° WSW 23:08:38 26° WNW 23:12:16 10° N
COSMOS 2455 3.0 23:08:58 40° SSE 23:10:50 55° ESE 23:16:43 10° NE
Cosmos 2297 Rocket 2.8 23:13:10 35° SE 23:14:28 40° ESE 23:19:42 10° NE
Nadezhda 1 Rocket 4.4 23:12:58 10° NNW 23:19:03 53° W 23:21:42 32° SSW
Cosmos 2181 Rocket 4.3 23:13:20 10° N 23:19:27 55° ENE 23:22:13 31° SE
Cosmos 1408 3.0 23:22:14 43° NW 23:22:14 43° NW 23:24:45 10° N
USA 281 4.2 23:19:37 25° SW 23:22:07 32° WSW 23:27:53 10° NW
COSMOS 2428 2.7 23:20:47 10° NNW 23:26:25 66° WSW 23:28:13 43° S
SL-4 R/B 2.9 23:22:56 10° WNW 23:26:55 49° NNE 23:31:06 10° E
GEOS 3 Rocket 3.6 23:25:04 10° NE 23:30:10 60° SE 23:31:28 46° S
ATLAS CENTAUR R/B 4.0 23:30:06 10° WNW 23:32:02 14° NW 23:33:59 10° N
CZ-3 Stage 3 4.4 23:16:55 10° W 23:35:13 28° SW 23:37:06 27° SSW
Cosmos 2219 Rocket 3.4 23:31:28 10° NW 23:36:07 27° WSW 23:37:28 24° SW
H-2A R/B 4.1 23:35:29 23° WSW 23:36:08 23° W 23:39:37 10° NW
Cosmos 1892 3.4 23:38:13 37° E 23:38:13 37° E 23:41:24 10° NNE
Cosmos 2208 Rocket 4.4 23:33:24 10° NNW 23:38:24 49° WSW 23:39:34 41° SW
Cosmos 371 Rocket 3.2 23:38:59 49° SSW 23:40:16 85° WNW 23:45:08 10° NNE
Cosmos 158 Rocket 4.4 23:35:46 10° NNW 23:40:54 50° WSW 23:42:07 41° SW
Cosmos 773 Rocket 3.9 23:43:10 10° NNW 23:48:21 80° WSW 23:49:51 47° S
Cosmos 2151 Rocket 3.5 23:44:42 10° N 23:49:07 76° E 23:50:03 54° SSE
ALOS 2 3.8 23:49:16 28° WSW 23:49:52 29° W 23:53:43 10° NW
Cosmos 2263 Rocket 4.1 23:50:27 14° ESE 23:52:15 16° E 23:55:34 10° ENE
Cosmos 1503 Rocket 4.0 23:51:55 44° SSW 23:53:42 88° WNW 23:59:03 10° NNE
